Regional Weather Roundup
Issued by NWS

Home | Current Version | Previous Version | Text Only | Print | Product List | Glossary Off
Versions: 1 2 3 4 5 6 7 8 9 10 11 12 13 14 15 16 17 18 19 20 21 22 23 24 25 26 27 28 29 30 31 32 33 34 35 36 37 38 39 40 41 42 43 44 45 46 47 48 49 50

000
ASUS45 KTFX 281904
RWRMT
MONTANA REGIONAL WEATHER ROUNDUP
NATIONAL WEATHER SERVICE GREAT FALLS MT
100 PM MDT FRI AUG 28 2015

NOTE: "FAIR" INDICATES FEW OR NO CLOUDS BELOW 12000 FEET WITH NO
SIGNIFICANT WEATHER AND/OR OBSTRUCTIONS TO VISIBILITY.

MTZ001>007-043-282000-
WEST OF THE DIVIDE

CITY           SKY/WX    TMP DP  RH WIND       PRES   REMARKS
KALISPELL      CLOUDY    81  41  24 S5        29.96F SMOKE
MISSOULA       CLOUDY    73  42  32 S3        30.01F HAZE
BUTTE          CLOUDY    76  39  26 CALM      30.19F HAZE
MULLAN PASS    CLOUDY    67  37  33 CALM      30.16S HAZE
DEER LODGE       N/A     81  41  24 S7        30.14F
EUREKA           N/A     81  39  22 SE10      29.94S
HAMILTON         N/A     75  48  38 NW2       30.02F
LIBBY            N/A     72  41  33 N5        29.96F
$$

MTZ008-052>055-282000-
SOUTHWEST MONTANA

CITY           SKY/WX    TMP DP  RH WIND       PRES   REMARKS
BOZEMAN        SUNNY     77  48  35 CALM      30.14F
DILLON         CLOUDY    79  43  27 N7        30.17F HAZE
W YELLOWSTONE  SUNNY     73  36  25 SW6       30.31F
$$

MTZ009-010-012-014-046-048-049-054-282000-
EAST SLOPES AND CENTRAL MONTANA

CITY           SKY/WX    TMP DP  RH WIND       PRES   REMARKS
CUT BANK       CLOUDY    79  34  19 SW9       30.00F HAZE
GREAT FALLS    PTSUNNY   87  29  12 SW16      30.02F
MALMSTROM AFB  PTSUNNY   85  33  15 SW9G18    30.02F
HELENA         PTSUNNY   77  49  37 NW5       30.07F SMOKE
$$

MTZ011-013-016-021-045-047-050-051-282000-
NORTH CENTRAL MONTANA

CITY           SKY/WX    TMP DP  RH WIND       PRES   REMARKS
HAVRE          CLOUDY    82  42  24 SW16      29.95F HAZE
LEWISTOWN      MOSUNNY   84  33  16 W8        30.09F
N BAR RANCH      N/A     84  27  12 NW12G20   30.12F
CHINOOK          N/A     81  45  28 W7        29.95F
FORT BENTON      N/A     88  34  14 S8G16     29.98F
$$

MTZ017>020-022>027-061-062-282000-
NORTHEAST MONTANA

CITY           SKY/WX    TMP DP  RH WIND       PRES   REMARKS
GLASGOW        MOSUNNY   86  42  21 W15       29.92F HAZE
JORDAN           N/A    N/A N/A N/A MISG        N/A
SIDNEY         MOSUNNY   84  61  45 S10       29.90F
WOLF POINT     CLOUDY    88  48  25 W16       29.91F HAZE
PLENTYWOOD       N/A     84  43  23 W9G16     29.90S
POPLAR           N/A     82  52  34 SW9       29.91F
$$

MTZ028>42-056>058-282000-
SOUTHCENTRAL AND SOUTHEAST MONTANA

CITY           SKY/WX    TMP DP  RH WIND       PRES   REMARKS
BAKER          MOSUNNY   83  49  30 W8        30.00F
BILLINGS       PTSUNNY   83  44  25 SW14      30.09F
LIVINGSTON     SUNNY     86  41  20 SW14      30.13F
MILES CITY     CLOUDY    86  42  21 W12       29.98F HAZE
FORSYTH          N/A     82  46  28 W10       30.01F
$$

REGIONAL REPORTS...DAKOTAS

CITY           SKY/WX    TMP DP  RH WIND       PRES   REMARKS
WILLISTON      SUNNY     83  61  47 SW9       29.89F
MINOT          SUNNY     84  59  42 NW7       29.86F
DICKINSON      SUNNY     88  53  30 NW5       29.92F
BISMARCK       SUNNY     85  66  53 S9        29.89F
GRAND FORKS    MOSUNNY   83  67  58 S24G31    29.81F
FARGO          SUNNY     80  66  62 S13       29.91F
BUFFALO SD       N/A     85  51  31 W8        29.94F
RAPID CITY     SUNNY     84  55  36 N10       30.04F
$$

REGIONAL REPORTS...WYOMING/IDAHO/WASHINGTON

CITY           SKY/WX    TMP DP  RH WIND       PRES   REMARKS
GILLETTE       SUNNY     82  42  24 VRB6      30.14F
SHERIDAN       SUNNY     88  39  17 N8        30.10F HAZE
BUFFALO WY     SUNNY     83  39  21 E6        30.19F
CODY           SUNNY     81  41  24 SE9       30.18F
YELLOWSTONE LA   N/A     63  43  48 SE6       30.42F
IDAHO FALLS    SUNNY     81  46  29 VRB5      30.20F
SALMON         CLOUDY    72  41  33 W5        30.10F
BOISE          MOSUNNY   88  40  18 N9        30.02F
SPOKANE        CLOUDY    75  42  30 SW10      30.00R
$$

REGIONAL REPORTS...ALBERTA

CITY           SKY/WX    TMP DP  RH WIND       PRES   REMARKS
$$

REGIONAL REPORTS...SASKATCHEWAN

CITY           SKY/WX    TMP DP  RH WIND       PRES   REMARKS
$$


USA.gov is the U.S. government's official web portal to all federal, state and local government web resources and services.